User: anonymous   Login
Location: Kott?ru
(16.6209°N, 80.6208°E)
Time: 23:39:38
(UTC+00:00)
Language:

Cosmos 1437 Rocket - Orbit

View from above orbital plane
View from above orbital plane
View from above satellite
View from above satellite

Ground track
Ground track

The orbit data is extracted from the following two-line orbital elements,

1 13771U 83003B   21127.58816098  .00001055  00000-0  60519-4 0  9997
2 13771  81.1644 165.6038 0044457 336.4991  23.4202 15.10880006 88180
Epoch (UTC): 07 May 2021 14:06:57
Eccentricity: 0.0044457
inclination: 81.1644°
perigee height: 503 km
apogee height: 564 km
right ascension of ascending node: 165.6038°
argument of perigee: 336.4991°
revolutions per day: 15.10880006
mean anomaly at epoch: 23.4202°
orbit number at epoch: 8818

The dashed part of the orbit path shows where the satellite is in the earth's shadow,  

DLR